GW2929 Weather Reports


Display with metric or nautical units.
time (UTC)temp
F
wind
direction
speed
MPH
gust
MPH
rain 1hr
in
rain 24hr
in
rain mn
in
humidity
%
barometer
mb
20260904015747 86 196 3.0 3.0 0.00 0.00 0.00 85 1006.7
20260904015243 86 198 2.0 3.0 0.00 0.00 0.00 85 1006.4
20260904014741 86 215 3.0 4.0 0.00 0.00 0.00 85 1006.3
20260904014236 86 114 2.0 3.0 0.00 0.00 0.00 84 1006.2
20260904013732 86 214 1.0 1.0 0.00 0.00 0.00 84 1006.3
20260904013228 86 212 2.0 4.0 0.00 0.00 0.00 85 1006.4
20260904012724 86 175 4.0 7.0 0.00 0.00 0.00 84 1006.3
20260904012223 86 125 2.0 2.0 0.00 0.00 0.00 84 1006.1
20260904011722 86 184 3.0 4.0 0.00 0.00 0.00 84 1006.1
20260904011218 86 241 1.0 2.0 0.00 0.00 0.00 83 1006.2
20260904010713 86 189 2.0 2.0 0.00 0.00 0.00 83 1006.0
20260904010210 86 232 4.0 6.0 0.00 0.00 0.00 83 1006.0
20260904005705 86 305 1.0 2.0 0.00 0.00 0.00 83 1005.8
20260904005201 87 198 1.0 1.0 0.00 0.00 0.00 82 1006.0
20260904004701 87 216 1.0 1.0 0.00 0.00 0.00 82 1006.0
20260904004200 87 218 4.0 7.0 0.00 0.00 0.00 82 1005.9
20260904003651 87 200 3.0 6.0 0.00 0.00 0.00 81 1005.9
20260904003147 87 165 6.0 8.0 0.00 0.00 0.00 81 1006.1
20260904002643 87 163 3.0 4.0 0.00 0.00 0.00 81 1006.3
20260904002138 87 220 4.0 6.0 0.00 0.00 0.00 81 1005.9
20260904001633 87 68 3.0 9.0 0.00 0.00 0.00 80 1006.3
20260904001131 88 205 2.0 3.0 0.00 0.00 0.00 80 1006.0
20260904000627 88 201 1.0 2.0 0.00 0.00 0.00 80 1006.2
20260904000123 88 204 3.0 3.0 0.00 0.00 0.00 80 1005.9
20260903235622 88 223 1.0 2.0 0.00 0.00 0.00 79 1006.1
20260903235119 88 179 5.0 10.0 0.00 0.00 0.00 79 1006.0
20260903234613 88 179 4.0 4.0 0.00 0.00 0.00 79 1005.8
20260903234109 88 211 1.0 2.0 0.00 0.00 0.00 77 1006.0
20260903233605 89 186 2.0 4.0 0.00 0.00 0.00 77 1006.0
20260903233101 89 179 2.0 3.0 0.00 0.00 0.00 76 1005.7
20260903232555 89 168 4.0 6.0 0.00 0.00 0.00 77 1005.6
20260903232051 89 243 2.0 2.0 0.00 0.00 0.00 76 1005.9
20260903231545 90 156 1.0 2.0 0.00 0.00 0.00 75 1005.8
20260903231039 90 213 3.0 4.0 0.00 0.00 0.00 74 1005.9
20260903230536 90 218 3.0 4.0 0.00 0.00 0.00 77 1005.6
20260903230034 90 244 4.0 6.0 0.00 0.00 0.00 75 1005.6
20260903225532 90 215 1.0 1.0 0.00 0.00 0.00 74 1005.6
20260903225028 91 220 2.0 3.0 0.00 0.00 0.00 74 1005.5
20260903224524 91 188 2.0 2.0 0.00 0.00 0.00 74 1005.4
20260903224020 90 229 2.0 3.0 0.00 0.00 0.00 75 1005.6
20260903223519 90 217 2.0 3.0 0.00 0.00 0.00 74 1005.7
20260903223018 90 205 1.0 2.0 0.00 0.00 0.00 74 1005.7
20260903222513 91 198 1.0 1.0 0.00 0.00 0.00 73 1005.5
20260903222012 91 191 3.0 6.0 0.00 0.00 0.00 73 1005.5
20260903221508 91 265 2.0 6.0 0.00 0.00 0.00 71 1005.4
20260903221004 91 231 2.0 2.0 0.00 0.00 0.00 71 1005.6
20260903220459 91 212 4.0 6.0 0.00 0.00 0.00 72 1005.6
20260903215956 91 64 2.0 3.0 0.00 0.00 0.00 72 1005.4
20260903215453 91 190 2.0 2.0 0.00 0.00 0.00 72 1005.5
20260903214950 92 235 3.0 3.0 0.00 0.00 0.00 73 1005.5
20260903214446 91 241 6.0 10.0 0.00 0.00 0.00 73 1005.5
20260903213941 92 273 1.0 2.0 0.00 0.00 0.00 73 1005.5
20260903213437 91 105 4.0 7.0 0.00 0.00 0.00 74 1005.8
20260903212932 92 197 5.0 8.0 0.00 0.00 0.00 73 1005.7
20260903212427 91 358 4.0 4.0 0.00 0.00 0.00 74 1005.6
20260903211922 92 234 3.0 4.0 0.00 0.00 0.00 74 1005.7
20260903211418 93 212 1.0 2.0 0.00 0.00 0.00 72 1005.7
20260903210914 93 33 5.0 11.0 0.00 0.00 0.00 72 1005.8
20260903210414 93 207 1.0 2.0 0.00 0.00 0.00 71 1005.7
20260903205909 94 207 2.0 3.0 0.00 0.00 0.00 70 1005.9
20260903205409 94 335 4.0 4.0 0.00 0.00 0.00 67 1005.7
20260903204903 94 188 3.0 6.0 0.00 0.00 0.00 67 1005.8
20260903204359 94 140 2.0 3.0 0.00 0.00 0.00 68 1005.9
20260903203855 95 202 3.0 4.0 0.00 0.00 0.00 65 1005.8
20260903203350 95 227 2.0 3.0 0.00 0.00 0.00 65 1006.0
20260903202849 95 223 2.0 3.0 0.00 0.00 0.00 66 1005.9
20260903202346 94 209 2.0 3.0 0.00 0.00 0.00 66 1006.0
20260903201845 95 201 5.0 7.0 0.00 0.00 0.00 64 1006.1
20260903201341 95 248 1.0 2.0 0.00 0.00 0.00 64 1005.7
20260903200840 96 250 2.0 4.0 0.00 0.00 0.00 64 1006.0
20260903200335 95 172 3.0 3.0 0.00 0.00 0.00 61 1006.0
20260903195830 95 88 5.0 8.0 0.00 0.00 0.00 63 1006.0
20260903195326 96 221 4.0 6.0 0.00 0.00 0.00 63 1006.1
20260903194821 96 229 2.0 3.0 0.00 0.00 0.00 61 1006.2
20260903194316 95 218 3.0 3.0 0.00 0.00 0.00 64 1006.2
20260903193812 96 194 2.0 2.0 0.00 0.00 0.00 62 1006.4
20260903193308 95 191 3.0 3.0 0.00 0.00 0.00 61 1006.4
20260903192803 95 232 2.0 4.0 0.00 0.00 0.00 62 1006.4
20260903192259 96 203 2.0 3.0 0.00 0.00 0.00 60 1006.4
20260903191755 97 239 2.0 3.0 0.00 0.00 0.00 59 1006.5
20260903191250 96 206 2.0 3.0 0.00 0.00 0.00 61 1006.6
20260903190745 96 201 3.0 6.0 0.00 0.00 0.00 58 1006.6
20260903190245 97 225 1.0 2.0 0.00 0.00 0.00 59 1006.5
20260903185740 97 247 1.0 2.0 0.00 0.00 0.00 58 1006.7
20260903185239 97 192 2.0 3.0 0.00 0.00 0.00 60 1006.7
20260903184736 97 175 1.0 2.0 0.00 0.00 0.00 60 1006.8
20260903184231 96 223 1.0 2.0 0.00 0.00 0.00 60 1006.8
20260903183727 95 218 2.0 3.0 0.00 0.00 0.00 62 1006.9
20260903183220 96 189 2.0 2.0 0.00 0.00 0.00 61 1007.0
20260903182720 95 255 3.0 3.0 0.00 0.00 0.00 62 1007.0
20260903182215 96 206 2.0 2.0 0.00 0.00 0.00 61 1007.2
20260903181714 96 205 2.0 2.0 0.00 0.00 0.00 61 1007.2
20260903181209 95 120 3.0 6.0 0.00 0.00 0.00 62 1007.2
20260903180704 95 178 2.0 4.0 0.00 0.00 0.00 63 1007.2
20260903180158 96 161 3.0 4.0 0.00 0.00 0.00 63 1007.3
20260903175657 97 215 2.0 3.0 0.00 0.00 0.00 61 1007.4
20260903175157 96 208 2.0 2.0 0.00 0.00 0.00 60 1007.6
20260903174651 96 137 3.0 6.0 0.00 0.00 0.00 62 1007.5
20260903174146 96 135 6.0 9.0 0.00 0.00 0.00 63 1007.7
20260903173641 96 164 2.0 3.0 0.00 0.00 0.00 64 1007.6
20260903173138 96 164 2.0 3.0 0.00 0.00 0.00 63 1007.7
20260903172637 96 188 1.0 2.0 0.00 0.00 0.00 63 1008.1
20260903172133 96 212 2.0 3.0 0.00 0.00 0.00 63 1008.0
20260903171632 96 191 4.0 6.0 0.00 0.00 0.00 63 1008.1
20260903171129 96 201 6.0 8.0 0.00 0.00 0.00 62 1008.1
20260903170627 95 184 1.0 1.0 0.00 0.00 0.00 65 1008.0
20260903170123 96 195 2.0 2.0 0.00 0.00 0.00 63 1008.1
20260903165620 94 235 0.0 0.0 0.00 0.00 0.00 65 1008.2
20260903165116 96 81 5.0 8.0 0.00 0.00 0.00 65 1008.2
20260903164610 95 208 2.0 3.0 0.00 0.00 0.00 65 1008.1
20260903164106 95 206 0.0 1.0 0.00 0.00 0.00 65 1008.0
20260903163601 95 218 1.0 2.0 0.00 0.00 0.00 65 1008.1
20260903163057 95 191 2.0 4.0 0.00 0.00 0.00 65 1008.0
20260903162553 95 205 0.0 1.0 0.00 0.00 0.00 66 1008.3
20260903162049 94 194 0.0 1.0 0.00 0.00 0.00 68 1008.0
20260903161544 94 191 3.0 4.0 0.00 0.00 0.00 67 1008.2
20260903161040 94 248 2.0 3.0 0.00 0.00 0.00 67 1008.3
20260903160538 93 210 2.0 3.0 0.00 0.00 0.00 67 1008.3
20260903160033 93 141 3.0 4.0 0.00 0.00 0.00 70 1008.0
20260903155526 93 209 2.0 3.0 0.00 0.00 0.00 69 1008.0
20260903155022 92 213 1.0 1.0 0.00 0.00 0.00 70 1008.1
20260903154518 92 99 5.0 9.0 0.00 0.00 0.00 68 1008.3
20260903154014 93 214 2.0 2.0 0.00 0.00 0.00 67 1008.1
20260903153509 92 195 1.0 2.0 0.00 0.00 0.00 71 1008.2
20260903153004 91 181 3.0 4.0 0.00 0.00 0.00 70 1007.9
20260903152500 90 214 4.0 7.0 0.00 0.00 0.00 72 1008.1
20260903151956 91 184 6.0 10.0 0.00 0.00 0.00 72 1008.1
20260903151450 91 216 1.0 1.0 0.00 0.00 0.00 73 1008.2
20260903150946 91 138 6.0 10.0 0.00 0.00 0.00 72 1007.9
20260903150445 90 164 5.0 6.0 0.00 0.00 0.00 73 1008.1
20260903145940 90 169 3.0 3.0 0.00 0.00 0.00 75 1008.2
20260903145435 90 220 2.0 4.0 0.00 0.00 0.00 75 1008.1
20260903144930 90 2 3.0 6.0 0.00 0.00 0.00 76 1008.0
20260903144430 89 160 5.0 7.0 0.00 0.00 0.00 77 1008.0
20260903143926 89 152 2.0 3.0 0.00 0.00 0.00 78 1008.2
20260903143422 89 212 4.0 6.0 0.00 0.00 0.00 78 1008.2
20260903142917 88 209 1.0 1.0 0.00 0.00 0.00 80 1008.1
20260903142413 89 172 3.0 4.0 0.00 0.00 0.00 80 1008.1
20260903141908 89 219 1.0 1.0 0.00 0.00 0.00 81 1008.1
20260903141358 88 171 1.0 2.0 0.00 0.00 0.00 82 1008.4
20260903140854 87 212 1.0 2.0 0.00 0.00 0.00 84 1008.3
20260903140349 87 205 1.0 2.0 0.00 0.00 0.00 85 1008.1
20260903135844 87 213 1.0 1.0 0.00 0.00 0.00 86 1008.1
20260903135340 86 220 2.0 2.0 0.00 0.00 0.00 88 1008.2
20260903134838 86 232 3.0 4.0 0.00 0.00 0.00 89 1008.4
20260903134334 86 175 0.0 0.0 0.00 0.00 0.00 90 1008.5
20260903133831 85 171 3.0 3.0 0.00 0.00 0.00 91 1008.6
20260903133327 85 184 3.0 4.0 0.00 0.00 0.00 91 1008.3
20260903132822 85 223 1.0 3.0 0.00 0.00 0.00 92 1008.1
20260903132318 85 192 2.0 3.0 0.00 0.00 0.00 91 1008.3
20260903131813 84 191 1.0 3.0 0.00 0.00 0.00 91 1008.3
20260903131313 84 195 0.0 0.0 0.00 0.00 0.00 92 1008.4
20260903130806 83 213 0.0 0.0 0.00 0.00 0.00 93 1008.4
20260903130301 83 198 2.0 3.0 0.00 0.00 0.00 94 1008.3
20260903125759 83 145 0.0 0.0 0.00 0.00 0.00 94 1008.3
20260903125255 82 187 0.0 1.0 0.00 0.00 0.00 94 1008.3
20260903124754 82 223 0.0 0.0 0.00 0.00 0.00 94 1008.3
20260903124250 82 220 0.0 0.0 0.00 0.00 0.00 95 1008.3
20260903123748 82 204 0.0 0.0 0.00 0.00 0.00 95 1008.4
20260903123248 82 169 0.0 0.0 0.00 0.00 0.00 95 1008.4
20260903122746 82 209 0.0 0.0 0.00 0.00 0.00 95 1008.2
20260903122236 82 191 2.0 3.0 0.00 0.00 0.00 95 1008.1
20260903121734 82 228 0.0 0.0 0.00 0.00 0.00 95 1008.1
20260903121231 82 232 0.0 0.0 0.00 0.00 0.00 96 1008.1
20260903120731 82 222 0.0 0.0 0.00 0.00 0.00 96 1008.2
20260903120224 82 234 0.0 0.0 0.00 0.00 0.00 96 1008.0
20260903115723 82 205 0.0 0.0 0.00 0.00 0.00 96 1008.0
20260903115218 82 209 0.0 0.0 0.00 0.00 0.00 96 1007.8
20260903114712 82 218 0.0 0.0 0.00 0.00 0.00 96 1008.1
20260903114209 82 218 0.0 0.0 0.00 0.00 0.00 96 1008.0
20260903113709 82 218 0.0 0.0 0.00 0.00 0.00 97 1008.0
20260903113205 82 226 0.0 0.0 0.00 0.00 0.00 97 1008.1
20260903112701 82 208 0.0 0.0 0.00 0.00 0.00 97 1008.2
20260903112156 82 217 0.0 0.0 0.00 0.00 0.00 96 1008.2
20260903111655 82 222 0.0 0.0 0.00 0.00 0.00 96 1008.0
20260903111150 82 215 0.0 0.0 0.00 0.00 0.00 96 1008.1
20260903110647 82 221 0.0 0.0 0.00 0.00 0.00 96 1008.2
20260903110142 82 246 0.0 0.0 0.00 0.00 0.00 96 1008.1
20260903105636 82 204 0.0 0.0 0.00 0.00 0.00 96 1008.0
20260903105132 82 218 0.0 1.0 0.00 0.00 0.00 96 1008.2
20260903104631 82 212 0.0 0.0 0.00 0.00 0.00 96 1008.2
20260903104127 82 192 0.0 0.0 0.00 0.00 0.00 96 1008.0
20260903103622 82 214 0.0 0.0 0.00 0.00 0.00 96 1008.2
20260903103119 82 218 0.0 0.0 0.00 0.00 0.00 96 1008.3
20260903102614 82 209 0.0 0.0 0.00 0.00 0.00 96 1008.2
20260903102113 82 209 0.0 0.0 0.00 0.00 0.00 95 1008.0
20260903101607 82 210 0.0 0.0 0.00 0.00 0.00 95 1008.0
20260903101103 83 215 0.0 0.0 0.00 0.00 0.00 95 1008.2
20260903100603 83 194 1.0 2.0 0.00 0.00 0.00 95 1008.1
20260903095554 83 170 2.0 3.0 0.00 0.00 0.00 95 1008.0
20260903095049 83 210 0.0 0.0 0.00 0.00 0.00 95 1008.1
20260903094549 83 217 0.0 0.0 0.00 0.00 0.00 95 1007.9
20260903094045 83 222 0.0 1.0 0.00 0.00 0.00 95 1008.2
20260903093545 83 198 3.0 3.0 0.00 0.00 0.00 95 1008.3
20260903093040 83 205 0.0 0.0 0.00 0.00 0.00 94 1008.3
20260903092539 83 116 0.0 0.0 0.00 0.00 0.00 94 1008.3
20260903092034 83 214 0.0 0.0 0.00 0.00 0.00 94 1008.0
20260903091532 83 226 0.0 0.0 0.00 0.00 0.00 94 1008.3
20260903091027 83 166 2.0 3.0 0.00 0.00 0.00 94 1008.0
20260903090523 83 238 0.0 1.0 0.00 0.00 0.00 94 1008.1
20260903090022 83 170 2.0 3.0 0.00 0.00 0.00 94 1008.0
20260903085520 83 218 0.0 0.0 0.00 0.00 0.00 94 1008.3
20260903085016 83 213 0.0 0.0 0.00 0.00 0.00 94 1008.2
20260903084514 83 151 0.0 1.0 0.00 0.00 0.00 93 1008.0
20260903084009 83 200 0.0 0.0 0.00 0.00 0.00 93 1008.2
20260903083505 83 203 0.0 0.0 0.00 0.00 0.00 93 1008.2
20260903083004 84 193 2.0 3.0 0.00 0.00 0.00 93 1007.9
20260903082459 84 201 0.0 0.0 0.00 0.00 0.00 93 1007.9
20260903081954 84 195 1.0 2.0 0.00 0.00 0.00 93 1008.2
20260903081449 84 232 2.0 3.0 0.00 0.00 0.00 93 1008.1
20260903080946 84 192 1.0 1.0 0.00 0.00 0.00 93 1008.2
20260903080441 84 189 0.0 0.0 0.00 0.00 0.00 93 1008.2
20260903075937 83 209 0.0 0.0 0.00 0.00 0.00 93 1008.3
20260903075432 84 171 2.0 2.0 0.00 0.00 0.00 93 1008.2
20260903074927 84 201 2.0 3.0 0.00 0.00 0.00 93 1007.9
20260903074426 84 189 1.0 1.0 0.00 0.00 0.00 93 1007.9
20260903073922 84 204 0.0 1.0 0.00 0.00 0.00 93 1008.1
20260903073417 84 222 2.0 3.0 0.00 0.00 0.00 93 1008.2
20260903072913 84 201 2.0 4.0 0.00 0.00 0.00 93 1007.9
20260903072409 84 205 0.0 0.0 0.00 0.00 0.00 93 1007.9
20260903071905 84 200 0.0 1.0 0.00 0.00 0.00 93 1007.8
20260903071401 84 205 0.0 0.0 0.00 0.00 0.00 93 1008.0
20260903070856 84 186 2.0 2.0 0.00 0.00 0.00 93 1008.1
20260903070351 84 175 0.0 1.0 0.00 0.00 0.00 93 1007.9
20260903065846 84 198 1.0 2.0 0.00 0.00 0.00 93 1008.2
20260903065345 84 220 0.0 1.0 0.00 0.00 0.00 93 1008.1
20260903064844 84 180 1.0 2.0 0.00 0.00 0.00 93 1008.2
20260903064340 84 211 2.0 2.0 0.00 0.00 0.00 93 1008.3
20260903063836 84 170 0.0 1.0 0.00 0.00 0.00 93 1008.1
20260903063330 84 196 1.0 1.0 0.00 0.00 0.00 92 1008.2
20260903062821 84 212 2.0 2.0 0.00 0.00 0.00 92 1008.3
20260903062321 84 208 0.0 0.0 0.00 0.00 0.00 92 1008.2
20260903061817 84 188 0.0 1.0 0.00 0.00 0.00 92 1008.4
20260903061316 84 195 1.0 3.0 0.00 0.00 0.00 92 1008.4
20260903060813 84 212 1.0 2.0 0.00 0.00 0.00 92 1008.4
20260903060311 84 217 0.0 0.0 0.00 0.00 0.00 92 1008.5
20260903055809 84 212 2.0 2.0 0.00 0.00 0.00 92 1008.5
20260903055308 84 179 1.0 2.0 0.00 0.00 0.00 92 1008.4
20260903054802 84 204 0.0 0.0 0.00 0.00 0.00 92 1008.3
20260903054257 84 221 1.0 3.0 0.00 0.00 0.00 92 1008.3
20260903053754 84 223 0.0 1.0 0.00 0.00 0.00 91 1008.4
20260903053254 84 146 2.0 4.0 0.00 0.00 0.00 91 1008.4
20260903052744 84 146 2.0 6.0 0.00 0.00 0.00 91 1008.3
20260903052239 84 184 4.0 8.0 0.00 0.00 0.00 91 1008.3
20260903051734 84 210 2.0 3.0 0.00 0.00 0.00 91 1008.5
20260903051230 84 203 1.0 2.0 0.00 0.00 0.00 91 1008.5
20260903050726 84 230 2.0 2.0 0.00 0.00 0.00 91 1008.5
20260903050224 84 192 1.0 2.0 0.00 0.00 0.00 91 1008.6
20260903045720 85 215 0.0 1.0 0.00 0.00 0.00 91 1008.5
20260903045216 85 163 4.0 4.0 0.00 0.00 0.00 91 1008.3
20260903044712 85 193 3.0 6.0 0.00 0.00 0.00 91 1008.2
20260903044207 85 192 2.0 3.0 0.00 0.00 0.00 91 1008.4
20260903043704 85 214 1.0 1.0 0.00 0.00 0.00 91 1008.5
20260903043203 85 254 1.0 1.0 0.00 0.00 0.00 91 1008.2
20260903042702 85 181 3.0 3.0 0.00 0.00 0.00 91 1008.6
20260903042157 85 196 0.0 1.0 0.00 0.00 0.00 91 1008.6
20260903041654 85 178 3.0 4.0 0.00 0.00 0.00 91 1008.6
20260903041149 85 192 4.0 7.0 0.00 0.00 0.00 91 1008.6
20260903040648 85 148 2.0 3.0 0.00 0.00 0.00 91 1008.5
20260903040144 85 218 1.0 1.0 0.00 0.00 0.00 91 1008.4
20260903035640 85 210 4.0 6.0 0.00 0.00 0.00 91 1008.5
20260903035135 85 207 3.0 3.0 0.00 0.00 0.00 91 1008.3
20260903034629 85 156 4.0 7.0 0.00 0.00 0.00 91 1008.4
20260903034119 85 173 3.0 3.0 0.00 0.00 0.00 91 1008.3
20260903033615 85 124 5.0 6.0 0.00 0.00 0.00 91 1008.3
20260903033109 85 217 0.0 1.0 0.00 0.00 0.00 91 1007.8
20260903032610 85 169 2.0 2.0 0.00 0.00 0.00 91 1008.1
20260903032105 85 212 1.0 1.0 0.00 0.00 0.00 91 1008.1
20260903031600 85 179 1.0 1.0 0.00 0.00 0.00 91 1008.0
20260903031055 85 198 3.0 6.0 0.00 0.00 0.00 90 1008.0
20260903030551 85 178 2.0 8.0 0.00 0.00 0.00 90 1007.9
20260903030047 85 173 4.0 7.0 0.00 0.00 0.00 90 1008.0
20260903025542 85 198 1.0 2.0 0.00 0.00 0.00 90 1007.7
20260903025038 85 206 1.0 2.0 0.00 0.00 0.00 90 1007.9
20260903024537 85 216 2.0 3.0 0.00 0.00 0.00 90 1007.7
20260903024032 85 222 3.0 4.0 0.00 0.00 0.00 90 1007.6
20260903023527 85 206 1.0 2.0 0.00 0.00 0.00 90 1007.8
20260903023023 85 196 4.0 6.0 0.00 0.00 0.00 89 1007.5
20260903022522 85 164 4.0 7.0 0.00 0.00 0.00 89 1007.4
20260903022020 85 215 0.0 2.0 0.00 0.00 0.00 89 1007.3
20260903021515 85 177 6.0 8.0 0.00 0.00 0.00 89 1007.2
20260903021010 85 194 4.0 4.0 0.00 0.00 0.00 89 1007.3
20260903020505 85 213 2.0 2.0 0.00 0.00 0.00 89 1007.2
20260903020000 85 199 4.0 4.0 0.00 0.00 0.00 90 1007.1